TimeCDT,TemperatureF,Dew PointF,Humidity,Sea Level PressureIn,VisibilityMPH,Wind Direction,Wind SpeedMPH,Gust SpeedMPH,PrecipitationIn,Events,Conditions,WindDirDegrees,DateUTC
12:53 AM,75.0,69.1,82,29.91,10.0,SSE,10.4,-,N/A,,Mostly Cloudy,160,2013-06-20 05:53:00
1:53 AM,75.0,70.0,84,29.90,10.0,SSE,11.5,-,N/A,,Mostly Cloudy,150,2013-06-20 06:53:00
2:53 AM,73.9,69.1,85,29.88,10.0,SSE,11.5,-,N/A,,Mostly Cloudy,160,2013-06-20 07:53:00
3:53 AM,73.0,70.0,90,29.88,10.0,SSE,12.7,-,N/A,,Mostly Cloudy,160,2013-06-20 08:53:00
4:53 AM,72.0,70.0,93,29.88,10.0,SSE,10.4,-,N/A,,Mostly Cloudy,160,2013-06-20 09:53:00
5:53 AM,72.0,70.0,93,29.89,10.0,SSE,12.7,-,N/A,,Mostly Cloudy,160,2013-06-20 10:53:00
6:53 AM,72.0,70.0,93,29.88,10.0,SSE,16.1,-,N/A,,Mostly Cloudy,160,2013-06-20 11:53:00
7:53 AM,73.9,71.1,91,29.90,10.0,South,18.4,24.2,N/A,,Mostly Cloudy,170,2013-06-20 12:53:00
8:53 AM,78.1,72.0,81,29.90,10.0,South,19.6,27.6,N/A,,Mostly Cloudy,170,2013-06-20 13:53:00
9:53 AM,81.0,73.0,77,29.90,10.0,South,18.4,31.1,N/A,,Mostly Cloudy,190,2013-06-20 14:53:00
10:53 AM,84.0,73.0,69,29.88,10.0,SSE,19.6,25.3,N/A,,Mostly Cloudy,160,2013-06-20 15:53:00
11:53 AM,87.1,73.0,63,29.86,10.0,South,21.9,29.9,N/A,,Overcast,170,2013-06-20 16:53:00
12:53 PM,90.0,72.0,55,29.84,10.0,South,24.2,33.4,N/A,,Overcast,170,2013-06-20 17:53:00
1:53 PM,91.0,72.0,53,29.82,10.0,SSE,27.6,35.7,N/A,,Overcast,160,2013-06-20 18:53:00
2:53 PM,93.0,71.1,49,29.81,10.0,SSE,26.5,36.8,N/A,,Overcast,160,2013-06-20 19:53:00
3:53 PM,93.9,72.0,49,29.81,10.0,South,27.6,33.4,N/A,,Scattered Clouds,170,2013-06-20 20:53:00
4:53 PM,93.9,71.1,47,29.81,10.0,South,26.5,34.5,N/A,,Scattered Clouds,170,2013-06-20 21:53:00
5:53 PM,93.0,71.1,49,29.79,10.0,South,24.2,33.4,N/A,,Scattered Clouds,180,2013-06-20 22:53:00
6:53 PM,91.0,70.0,50,29.81,10.0,South,23.0,33.4,N/A,,Scattered Clouds,180,2013-06-20 23:53:00
7:53 PM,89.1,71.1,55,29.80,10.0,South,24.2,31.1,N/A,,Scattered Clouds,170,2013-06-21 00:53:00
8:53 PM,87.1,70.0,57,29.82,10.0,South,21.9,28.8,N/A,,Scattered Clouds,170,2013-06-21 01:53:00
9:53 PM,84.9,70.0,61,29.85,10.0,South,21.9,-,N/A,,Scattered Clouds,170,2013-06-21 02:53:00
10:53 PM,82.9,71.1,67,29.87,10.0,South,20.7,27.6,N/A,,Scattered Clouds,170,2013-06-21 03:53:00
11:53 PM,81.0,69.1,67,29.88,10.0,South,19.6,27.6,N/A,,Mostly Cloudy,170,2013-06-21 04:53:00